YUNYAO-1 45

导读 | 星芒AI

YUNYAO-1 45 是中国“云遥”星座计划中的一颗遥感卫星,主要用于气象观测和环境监测。该卫星具备高分辨率成像能力,可提供精准的气象数据,支持天气预报、灾害预警和气候变化研究。它采用先进的光学传感器和数据传输技术,确保信息的实时性和准确性。YUNYAO-1 45 的成功发射进一步增强了中国在气象卫星领域的自主能力和应用水平,为国家防灾减灾和可持续发展提供有力支撑。

基本信息
目录编号:
63346
目录名称:
YUNYAO-1 45
国际标识:
2025-059C
轨道中心:
EARTH
卫星名称:
YUNYAO-1 45
卫星全名:
YUNYAO-1 45
卫星状态:
在轨 (已飞行222 天)
发射日期:
2025-03-21 UTC
国别 :
中国 (CN)
星等 :
--
轨道信息
数据来源 国际轨道数据
星历时间: 2025-10-28T22:39:53+0800
16小时前
查看轨道信息
半长轴: 6917.636km
偏心率: 0.0015605
轨道倾角: 97.605°
近地点辐角 227.690°
升交点赤经 119.702°
平近点角 132.301°
近地点: 528.706km
远地点: 550.296km
周期: 95.432分钟
每日圈数: 15.089201
详细信息
使用方式:
暂无
2D轨道图
3D轨道图
轨道高度分析图
轨道倾角分析图
轨道综合分析图
查看轨道综合分析图